Location: Blairvadach
(56.2780°N, 6.9720°W)
Time: 10:47:00
(UTC+01:00)

N. Korean satellite - Visible Passes

Search period start: 18 October 2019 00:00
Search period end: 27 October 2019 23:00
Orbit: 455 x 508 km, 97.2° (Epoch: 18 October)

Date Brightness Start Highest point End Pass type
(mag) Time Alt. Az. Time Alt. Az. Time Alt. Az.
18 Oct 9.7 06:37:52 10° NE 06:40:35 20° E 06:43:19 10° SE visible
18 Oct 8.4 18:53:51 10° SSW 18:57:03 36° W 19:00:19 10° NNW visible
19 Oct 10.3 06:13:34 10° ENE 06:15:02 12° E 06:16:29 10° ESE visible
20 Oct 7.6 07:20:06 10° NNE 07:23:38 51° E 07:27:11 10° S visible
20 Oct 10.0 19:38:10 10° SW 19:40:11 15° W 19:42:13 10° NW visible
21 Oct 8.9 06:55:01 10° NNE 06:58:12 29° E 07:01:25 10° SSE visible
21 Oct 9.2 19:11:45 10° SSW 19:14:38 25° W 19:17:35 10° NW visible
22 Oct 9.9 06:30:12 10° NE 06:32:42 17° E 06:35:13 10° SE visible
22 Oct 7.9 18:45:52 10° S 18:49:11 44° W 18:52:34 10° NNW visible
23 Oct 10.5 06:06:28 10° ENE 06:07:07 10° E 06:07:44 10° E visible
23 Oct 10.6 19:57:40 10° W 19:57:52 10° W 19:58:03 10° W visible
24 Oct 8.0 07:12:17 10° NNE 07:15:47 43° E 07:19:17 10° S visible
24 Oct 9.9 19:29:52 10° SW 19:32:14 17° W 19:34:40 10° NW visible
25 Oct 9.2 06:47:14 10° NE 06:50:19 25° E 06:53:25 10° SSE visible
25 Oct 8.8 19:03:38 10° SSW 19:06:43 29° W 19:09:52 10° NNW visible
26 Oct 10.1 06:22:34 10° NE 06:24:47 15° E 06:27:01 10° SE visible
26 Oct 7.5 18:37:52 10° S 18:41:16 53° W 18:44:46 10° NNW visible
27 Oct 7.1 06:29:37 10° NNE 06:33:17 66° ESE 06:36:57 10° S visible
27 Oct 10.2 18:48:25 10° WSW 18:49:52 12° W 18:51:21 10° WNW visible
